Location: Unspecified
(47.6579°N, 23.5637°E)
Time: 02:33:17
(UTC+02:00)

Envisat - Pass Details

Date: 04 December 2021
Orbit: 764 x 766 km, 98.2° (Epoch: 17 January)

Event Time Altitude Azimuth Distance (km) Brightness Sun altitude
Rises 05:50:27 0° 11° (N) 3,245 6.3 -20.4°
Reaches altitude 10° 05:52:46 10° 9° (N) 2,314 5.5 -20.0°
Maximum altitude 05:57:50 69° 287° (WNW) 819 2.9 -19.2°
Drops below altitude 10° 06:02:52 10° 205° (SSW) 2,296 5.3 -18.4°
Sets 06:05:09 0° 203° (SSW) 3,217 6.1 -18.0°
